Regional Weather Roundup
Issued by NWS

Home | Current Version | Previous Version | Graphics & Text | Print | Product List | Glossary On
Versions: 1 2 3 4 5 6 7 8 9 10 11 12 13 14 15 16 17 18 19 20 21 22 23 24 25 26 27 28 29 30 31 32 33 34 35 36 37 38 39 40 41 42 43 44 45 46 47 48 49 50
000
ASUS43 KMPX 290601
RWRMN
WEATHER ROUNDUP FOR MINNESOTA
NATIONAL WEATHER SERVICE TWIN CITIES/CHANHASSEN MN
1200 AM CST MON DEC 29 2014


NOTE: "FAIR" INDICATES FEW OR NO CLOUDS BELOW 12,000 FEET WITH NO
SIGNIFICANT WEATHER AND/OR OBSTRUCTIONS TO VISIBILITY. N/A MEANS
CURRENT SKY AND/OR WEATHER CONDITIONS ARE NOT AVAILABLE.

MNZ060>063-068>070-290700-
   Twin Cities Metro

CITY           SKY/WX    TMP DP  RH WIND       PRES   REMARKS
TWIN CITIES    CLOUDY    10  -2  58 N9        30.39R WCI  -3
6HR MIN TEMP:  10; 6HR MAX TEMP:  18;

ST PAUL        MOCLDY    10  -1  61 VRB6      30.41R WCI   0
CRYSTAL        PTCLDY    10  -1  61 N6        30.38R WCI   0
BLAINE         FAIR       9   1  72 N7        30.37S WCI  -3
LAKEVILLE      MOCLDY    10   1  67 N3        30.37R
EDEN PRAIRIE   CLOUDY    12   0  58 NE7       30.38R WCI   1
6HR MIN TEMP:  11; 6HR MAX TEMP:  18;

SOUTH ST PAUL  MOCLDY    12   0  58 N5        30.39R WCI   4
LAKE ELMO      FAIR       9   0  66 N6        30.38R WCI  -1
$$
MNZ001>005-007-008-013>017-022>024-027-028-290700-
   Northwest Minnesota

CITY           SKY/WX    TMP DP  RH WIND       PRES   REMARKS
BEMIDJI        CLEAR     -9 -13  82 NW3       30.40R
HALLOCK        PTCLDY    -9 -17  70 N12       30.52R WCI -29
ROSEAU         PTCLDY    -9 -17  70 NW3       30.48R
WARROAD        PTCLDY   -11 -18  70 NW5       30.46R WCI -23
THIEF RVR FALL PTCLDY    -8 -15  71 N8        30.46R WCI -23
CROOKSTON      PTCLDY    -9 -15  77 NW7       30.53R WCI -24
FOSSTON        CLEAR    -11 -17  77 N5        30.45R WCI -23
DETROIT LAKES  CLEAR     -4  -8  84 N12       30.43R WCI -22
MOORHEAD       PTCLDY    -4  -8  84 N12       30.51R WCI -22
PARK RAPIDS    CLEAR     -4  -9  79 N6        30.39R WCI -16
MAHNOMEN       FAIR      -7 -12  79 N7        30.44R WCI -21
$$
MNZ006-009>011-018-025>026-290700-
   North Central Minnesota

CITY           SKY/WX    TMP DP  RH WIND       PRES   REMARKS
BAUDETTE       CLEAR    -11 -17  75 NW12      30.42R WCI -31
FLAG ISLAND    PTCLDY   -15 -18  84 NW14      30.44R WCI -38
INTL FALLS     CLEAR    -10 -16  74 NW7       30.39R WCI -25
6HR MIN TEMP: -10; 6HR MAX TEMP:  -4;

WASKISH        CLEAR     -8 -11  84 NW7       30.42R WCI -22
BIG FORK       CLEAR     -8 -11  84 CALM      30.37S
LONGVILLE      CLEAR     -2  -8  78 CALM      30.38R
GRAND RAPIDS   CLEAR     -2  -9  71 N7        30.34R WCI -16
CRANE LAKE     CLEAR     -9 -13  84 CALM      30.39S
ORR            FAIR      -8 -15  71 NW7       30.33R WCI -22
COOK           CLEAR     -9 -13  84 NW3       30.35S
WALKER         FAIR      -5 -10  81 CALM      30.39R
$$
MNZ012-019>021-037-290700-
   Northeast Minnesota

CITY           SKY/WX    TMP DP  RH WIND       PRES   REMARKS
DULUTH         CLEAR      0  -9  65 NW10      30.30R WCI -16
6HR MIN TEMP:   0; 6HR MAX TEMP:   5;

ELY            CLEAR     -8 -13  77 CALM      30.32R
HIBBING        CLEAR     -4 -11  72 N10       30.34R WCI -21
EVELETH        CLEAR     -2  -9  71 N6        30.34R WCI -14
DULUTH HARBOR  CLEAR      7  -6  56 NW10      30.41R WCI  -8
TWO HARBORS    CLEAR      1  -8  66 CALM      30.31R
SILVER BAY     CLEAR      0  -9  65 CALM      30.30R
GRAND MARAIS     N/A      0  -9  65 VRB3      30.35R
G MARAIS ARPRT CLEAR     -9 -15  77 NW8G17    30.19S WCI -26
$$
MNZ029>031-032-039>041-046>048-054>057-064-290700-
   West Central Minnesota

CITY           SKY/WX    TMP DP  RH WIND       PRES   REMARKS
FERGUS FALLS   PTCLDY     0  -8  71 N5        30.48R WCI -10
WHEATON        FAIR      -2  -6  84 N10       30.47S WCI -19
MORRIS         CLOUDY     7   1  78 N10       30.41R WCI  -8
ALEXANDRIA     PTCLDY     6  -2  69 N9        30.38R WCI  -8
ELBOW LAKE     FAIR       4  -3  75 N10       30.42R WCI -12
WADENA         CLEAR      0  -6  78 N6        30.39R WCI -12
GLENWOOD       MOCLDY     7   1  78 N7        30.38R WCI  -5
APPLETON       CLOUDY     9   3  78 N13       30.43R WCI  -7
BENSON         CLOUDY    10   7  85 N6        30.41R WCI   1
ORTONVILLE     CLOUDY     3  -2  78 NW8       30.43R WCI -10
MADISON        MOCLDY    10   7  85 N12       30.42R WCI  -4
WILLMAR        FAIR      12   3  67 N5        30.40R WCI   4
$$
MNZ033>034-036-042>043-049>051-058-059-290700-
   Central Minnesota

CITY           SKY/WX    TMP DP  RH WIND       PRES   REMARKS
ST CLOUD       MOCLDY    10  -1  61 N6        30.39R WCI   0
6HR MIN TEMP:  10; 6HR MAX TEMP:  16;

SAUK CENTRE    FAIR       6  -2  70 N5        30.38R WCI  -3
PAYNESVILLE    CLOUDY     7   0  73 NW7       30.39R WCI  -5
AITKIN         CLEAR      3  -6  66 NW3       30.37R
PINE RIVER     CLEAR     -2  -6  84 NW7       30.41R WCI -16
BRAINERD       CLEAR      2  -5  72 N6        30.39R WCI  -9
STAPLES        PTCLDY     0  -6  78 N5        30.39R WCI -10
LONG PRAIRIE   FAIR       3   0  85 NW3       30.38R
LITTLE FALLS   PTCLDY     5  -4  66 NW5       30.39S WCI  -4
LITCHFIELD     CLOUDY    10   3  72 N6        30.39R WCI   1
BUFFALO        MOCLDY     9   1  70 CALM      30.40R
MAPLE LAKE     MOCLDY     8   3  79 NW3       30.39R
$$
MNZ037-044-045-052-053-290700-
   East Central Minnesota

CITY           SKY/WX    TMP DP  RH WIND       PRES   REMARKS
PRINCETON      PTCLDY     9   0  66 CALM      30.38R
MORA           CLEAR      7  -2  66 VRB3      30.40R
CAMBRIDGE      PTCLDY     9  -2  61 CALM      30.37R
RUSH CITY      PTCLDY     5  -2  72 N3        30.39R
MOOSE LAKE     CLEAR      1  -6  71 N5        30.36R WCI  -8
HINCKLEY       FAIR       5   0  78 CALM      30.38R
CLOQUET        CLEAR      0  -8  71 NW6       30.33R WCI -12
MCGREGOR       CLEAR      1  -4  78 NW3       30.38R
$$
MNZ071>073-080-081-089-090-097-098-290700-
   Southwest Minnesota

CITY           SKY/WX    TMP DP  RH WIND       PRES   REMARKS
MONTEVIDEO     CLOUDY    12   7  79 N6        30.42R WCI   3
GRANITE FALLS  CLOUDY    13   7  78 NW7       30.41R WCI   3
CANBY          CLOUDY     8   4  84 NW13      30.41R WCI  -8
MARSHALL       CLOUDY    10   3  72 N15       30.37R WCI  -6
REDWOOD FALLS  CLOUDY    15   5  64 N7        30.37R WCI   5
OLIVIA         CLOUDY    14   9  79 NE7       30.38R WCI   4
PIPESTONE      LGT SNOW  10   9  92 NE10      30.29R WCI  -3
WINDOM         CLOUDY    18  12  79 N7        30.31R WCI   8
WORTHINGTON    CLOUDY    16 -27  13 N12       30.30R WCI   3
JACKSON        LGT SNOW  21  18  86 NE9       30.30R WCI  11
TRACY          CLOUDY    12   9  85 N12       30.35R WCI  -2
SLAYTON        CLOUDY    11   8  87 N10       30.32R WCI  -3
$$
MNZ065>067-074>077-082>085-091>093-290700-
   South Central Minnesota

CITY           SKY/WX    TMP DP  RH WIND       PRES   REMARKS
MANKATO        CLOUDY    14   7  73 N7        30.34R WCI   4
NEW ULM        CLOUDY    12   3  67 NE9       30.35S WCI   0
ST JAMES       CLOUDY    16  14  93 N8        30.34S WCI   5
FAIRMONT       CLOUDY    18  12  79 N7        30.31R WCI   8
GLENCOE        CLOUDY    12   4  70 N5        30.38R WCI   4
FARIBAULT      CLOUDY    12   9  85 N5        30.35R WCI   4
OWATONNA       CLOUDY    14   9  79 N5        30.33R WCI   6
ALBERT LEA     CLOUDY    16  12  86 N6        30.30R WCI   7
$$
MNZ078>079-086>088-094>096-290700-
   Southeast Minnesota

CITY           SKY/WX    TMP DP  RH WIND       PRES   REMARKS
ROCHESTER      CLOUDY    13  10  88 N8        30.29S FOG     WCI   2
6HR MIN TEMP:  11; 6HR MAX TEMP:  15;

RED WING       MOCLDY    10   1  67 CALM      30.36R
STANTON        MOCLDY     9   6  86 N7        30.35R WCI  -2
DODGE CENTER   CLOUDY    12  10  92 N8        30.29S WCI   1
WINONA         MOCLDY    14  12  92 CALM      30.36R
AUSTIN         CLOUDY    16  12  86 NE7       30.29R WCI   6
PRESTON        CLOUDY    13  11  90 N6        30.28S WCI   4
$$
ABBREVIATIONS USED IN REMARKS
   TC - TEMPERATURES IN CELSIUS
  WCI - WIND CHILL INDEX
   HX - HEAT INDEX
  VSB - VISIBILITY
$$


USA.gov is the U.S. government's official web portal to all federal, state and local government web resources and services.